Flag Weather past 2 weeks in Stassfurt, Saxony-Anhalt, Germany

Now
43 °F

Passing clouds.


Feels Like: 43 °F
Forecast: 38 / 50 °F
Wind: 2 mph from Southeast

Location: Magdeburg

Current Time: Nov 22, 2014 at 6:07:32 PM

Latest Report: Nov 22, 2014 at 5:00 PM


Visibility: 10 mi

Pressure: 30.21 "Hg

Humidity: 79%

Dew point: 37 °F

Location of StassfurtLocation

Historic Weather in Stassfurt — Graph

°F

Stassfurt temperature yesterday

Maximum temperature yesterday: 45 °F (at 2:00 PM)
Minimum temperature yesterday: 41 °F (at 11:00 PM)
Average temperature yesterday: 42 °F

Past Weeks' High & Low Weather Summary

 TemperatureHumidityPressure
High57 °F (Nov 8, 1:00 PM)99% (Nov 10, 2:00 AM)30.38 "Hg (Nov 10, 2:00 AM)
Low37 °F (Nov 9, 3:00 AM)67% (Nov 8, 1:00 PM)29.53 "Hg (Nov 16, 2:00 PM)
Average46 °F91%29.93 "Hg
* Reported Nov 7 5:00 PM — Nov 22 5:00 PM, Stassfurt, Weather by CustomWeather, © 2014

Note: Actual official high and low records may vary slightly from our data, if they occured in-between our weather recording intervals... More about our weather records

Advertising

Stassfurt weather history for previous 24 hours

 ConditionsComfort  
Time TempWeatherWind HumidityBarometerVisibility
5:00 PM
Nov 22
43 °FPassing clouds.2 mph79%30.21 "Hg10 mi
4:00 PM44 °FPartly sunny.2 mph77%30.22 "Hg12 mi
3:00 PM45 °FScattered clouds.3 mph75%30.21 "Hg12 mi
2:00 PM45 °FScattered clouds.5 mph74%30.20 "Hg16 mi
1:00 PM46 °FPartly sunny.5 mph73%30.22 "Hg16 mi
12:00 PM44 °FPartly sunny.5 mph75%30.23 "Hg16 mi
11:00 AM43 °FOvercast.5 mph78%30.24 "Hg11 mi
9:00 AM40 °FOvercast.3 mph83%30.23 "Hg10 mi
8:00 AM40 °FOvercast.2 mph84%30.24 "Hg7 mi
7:00 AM41 °FOvercast.2 mph82%30.23 "Hg7 mi
6:00 AM41 °FOvercast.2 mph81%30.23 "Hg6 mi
5:00 AM41 °FOvercast.1 mph84%30.23 "Hg6 mi
3:00 AM41 °FOvercast.2 mph83%30.24 "Hg6 mi
2:00 AM41 °FOvercast.2 mph82%30.26 "Hg6 mi
1:00 AM42 °FOvercast.2 mph80%30.27 "Hg6 mi
12:00 AM41 °FOvercast.2 mph83%30.28 "Hg6 mi
11:00 PM
Nov 21
41 °FOvercast.2 mph85%30.28 "Hg6 mi
9:00 PM41 °FOvercast.2 mph85%30.29 "Hg6 mi
8:00 PM42 °FOvercast.1 mph85%30.29 "Hg6 mi
7:00 PM42 °FOvercast.2 mph85%30.29 "Hg7 mi
6:00 PM42 °FOvercast.2 mph81%30.29 "Hg9 mi
Weather by CustomWeather, © 2014

See weather overviewHow to use our weather pages